Location: Guadanolo
(41.9167°N, 12.9333°E)
Time: 02:00:42
(UTC+00:00)

CZ-2C R/B - Pass Details

Date: 16 September 2019
Orbit: 704 x 907 km, 98.1° (Epoch: 22 October)

Event Time Altitude Azimuth Distance (km) Brightness Sun altitude
Exits shadow 19:04:05 40° 100° (E) 1,156 3.4 -20.2°
Maximum altitude 19:05:04 45° 70° (ENE) 1,085 3.4 -20.3°
Drops below altitude 10° 19:10:11 10° 359° (N) 2,447 5.9 -21.2°
Sets 19:12:42 0° 354° (N) 3,417 6.8 -21.6°
